2020-079A (46827 NORAD) Tracking and Keplerian Element Data

This shows tracking and keplerian element data for the satellite.

Feedback or suggestion? Click here.




ElementValue
Catalog46827
Name2020-079A
Epoch Orbit305
Epoch Day331.13035458
Epoch Year2020
RAAN42.9296
Inclination97.2637
Eccentricity0.0010213
Argument of Perigee166.832
Mean Anonmoly252.4674
Mean Motion15.30854259
Decay Rate3.682E-05
L11 46827U 20079A 20331.13035458 .00003682 00000-0 12587-3 0 9998
L22 46827 97.2637 42.9296 0010213 166.8320 252.4674 15.30854259 3058

Live tracking and technical data element details for 2020-079A (NORAD 46827). 2020-079A can be tracked NOW for your location showing map with azimuth and elevation plus other details from your city location.

Track the satellite on the map from your city or location and see movement details for azimuth, elevation, latitude, longitude, range, height, and movement on the map or in text.







IsCatalogInMostPopularTable: catalog: 46827, numindb: 5
Update: records affected: 1



GetName: 46827 2020-079A

Hit Count: updated at: Thu, 26 Nov 2020 18:38:32 GMT